Miami, FL

4:37 PM EST on December 09, 2019 (GMT -0500)
Miami International

Weather History for KMIA - October, 2019

Change the Weather History Date:

Tuesday, October 8, 2019

  Actual Average Record
Temperature  
Mean Temperature 82 °F 81 °F  
Max Temperature 87 °F 87 °F 93 °F (2009)
Min Temperature 77 °F 75 °F 65 °F (1979)
Degree Days  
Heating Degree Days 0 0  
Month to date heating degree days 0 0  
Since 1 July heating degree days 0 0  
Cooling Degree Days 17 16  
Month to date cooling degree days 144 133  
Year to date cooling degree days 4235 3745  
Growing Degree Days 32 (Base 50)    
Moisture  
Dew Point 74 °F    
Average Humidity 81    
Maximum Humidity 91    
Minimum Humidity 70    
Precipitation  
Precipitation 0.45 in 0.26 in 8.59 in (1991)
Month to date precipitation 1.76 2.17  
Year to date precipitation 56.93 52.43  
Snow  
Snow 0.00 in - - ()
Month to date snowfall 0.0  
Since 1 July snowfall 0.0  
Since 1 September snowfall 0.0  
Snow Depth 0.00 in    
Sea Level Pressure  
Sea Level Pressure 29.89 in    
Wind  
Wind Speed 7 mph (SSW)    
Max Wind Speed 20 mph    
Max Gust Speed 25 mph    
Visibility 9 miles    
Events Rain    
T = Trace of Precipitation, MM = Missing Value Source: NWS Daily Summary

Daily Weather History Graph

Daily Weather History Graph

Search for Another Location

Airport or City:

Astronomy

Oct. 08, 2019 Rise Set
Actual Time 7:16 AM EDT 7:00 PM EDT
Civil Twilight 6:53 AM EDT 7:23 PM EDT
Nautical Twilight 6:26 AM EDT 7:50 PM EDT
Astronomical Twilight 6:00 AM EDT 8:16 PM EDT
Moon 4:23 PM EDT (10/8) 2:42 AM EDT (10/8)
Length of Visible Light 12h 30m
Length of Day
11h 44m
Waxing Gibbous, 77% of the Moon is Illuminated
Oct 8
Waxing Gibbous
Oct 13
Full
Oct 21
Last Quarter
Oct 27
New
Nov 4
First Quarter

Hourly Weather History & Observations

Time (EDT) Temp. Heat Index Dew Point Humidity Pressure Visibility Wind Dir Wind Speed Gust Speed Precip Events Conditions
12:53 AM 78.1 °F - 72.0 °F 81% 29.86 in 10.0 mi SSW 5.8 mph - 0.00 in Rain Light Rain
1:53 AM 77.0 °F - 73.0 °F 88% 29.86 in 10.0 mi SW 4.6 mph - 0.00 in   Overcast
2:53 AM 77.0 °F - 73.0 °F 88% 29.85 in 10.0 mi Calm Calm - N/A   Overcast
3:53 AM 77.0 °F - 73.9 °F 90% 29.85 in 10.0 mi SSW 3.5 mph - 0.00 in Rain Light Rain
4:53 AM 78.1 °F - 73.9 °F 87% 29.85 in 10.0 mi Calm Calm - 0.00 in Rain Light Rain
5:53 AM 78.1 °F - 73.9 °F 87% 29.86 in 10.0 mi Calm Calm - 0.00 in   Overcast
6:53 AM 79.0 °F - 73.9 °F 84% 29.87 in 10.0 mi Variable 4.6 mph - N/A   Overcast
7:53 AM 79.0 °F - 75.0 °F 88% 29.87 in 10.0 mi SE 5.8 mph - 0.02 in Rain Light Rain
8:53 AM 79.0 °F - 75.0 °F 88% 29.89 in 7.0 mi South 6.9 mph - 0.05 in Rain Light Rain
9:51 AM 78.8 °F - 75.2 °F 89% 29.91 in 5.0 mi SW 9.2 mph 18.4 mph 0.16 in Rain Rain
9:53 AM 79.0 °F - 75.0 °F 88% 29.92 in 3.0 mi SW 9.2 mph 18.4 mph 0.17 in Rain Rain
10:13 AM 77.0 °F - 73.0 °F 88% 29.92 in 3.0 mi SSW 15.0 mph 21.9 mph 0.09 in Rain Rain
10:53 AM 77.0 °F - 73.9 °F 90% 29.91 in 10.0 mi South 10.4 mph - 0.20 in   Mostly Cloudy
11:53 AM 80.1 °F 84.5 °F 73.9 °F 81% 29.91 in 10.0 mi South 9.2 mph - N/A   Overcast
12:53 PM 82.9 °F 89.4 °F 73.9 °F 74% 29.89 in 10.0 mi SSW 17.3 mph 24.2 mph N/A   Mostly Cloudy
1:53 PM 81.0 °F 84.9 °F 71.1 °F 72% 29.88 in 10.0 mi SW 13.8 mph - 0.00 in   Mostly Cloudy
2:53 PM 84.9 °F 94.1 °F 75.9 °F 74% 29.87 in 10.0 mi SSW 9.2 mph - N/A   Mostly Cloudy
3:53 PM 84.9 °F 91.4 °F 73.0 °F 67% 29.87 in 10.0 mi SW 13.8 mph 18.4 mph N/A   Mostly Cloudy
4:53 PM 84.9 °F 92.1 °F 73.9 °F 69% 29.87 in 10.0 mi SW 10.4 mph - N/A   Mostly Cloudy
5:53 PM 80.1 °F 84.2 °F 73.0 °F 79% 29.88 in 10.0 mi SW 6.9 mph - 0.01 in Rain Light Rain
6:53 PM 80.1 °F 84.5 °F 73.9 °F 81% 29.89 in 10.0 mi SSW 5.8 mph - 0.00 in   Mostly Cloudy
7:53 PM 80.1 °F 84.5 °F 73.9 °F 81% 29.89 in 10.0 mi SW 6.9 mph - N/A   Overcast
8:53 PM 80.1 °F 84.2 °F 73.0 °F 79% 29.92 in 10.0 mi SW 6.9 mph - N/A   Overcast
9:53 PM 79.0 °F - 73.9 °F 84% 29.95 in 10.0 mi SW 5.8 mph - N/A   Overcast
10:53 PM 79.0 °F - 75.0 °F 88% 29.95 in 10.0 mi WSW 4.6 mph - N/A   Mostly Cloudy
11:53 PM 79.0 °F - 75.0 °F 88% 29.94 in 10.0 mi West 3.5 mph - N/A   Mostly Cloudy